Back to catalog

STARLINK-35147

AliveCommunicationsVLEO
NORAD 65637·PAYLOAD·🇺🇸 United States

Launched Sep 18, 2025 from Cape Canaveral Space Force Station

Loading…

Next Passes (next 24 hours)

TLE

FreshSource: CelesTrak SupGP

Epoch: Sep 14, 2026, 22:32 UTC

1 65637C 25210R   26257.93937500 -.00004566  00000+0 -13502-3 0  2578
2 65637  53.1566 143.7652 0000937  87.9444   7.4968 15.34367162    11

Track STARLINK-35147 in real time with AllMySat

Download on the App Store